{"data":{"norad_id":52373,"epoch":"2026-05-25T04:33:15.937920Z","epoch_age_seconds":55274,"freshness":"FRESH","line1":"1 52373U 22045AU  26145.18976780 -.00000186  00000+0  63911-5 0  9997","line2":"2 52373  53.2137 205.6992 0001177  76.0260 284.0863 15.08836716227471","mean_motion":15.08836716,"eccentricity":0.0001177,"inclination_deg":53.2137,"raan_deg":205.6992,"arg_perigee_deg":76.026,"mean_anomaly_deg":284.0863,"bstar":6.3911e-6,"rev_number":22747,"period_min":95.437762398672,"perigee_km":538.93919115328,"apogee_km":540.56766255977,"semimajor_km":6917.8904268565,"source":"CELESTRAK","updated_at":"2026-05-25T13:38:17.121417Z"}}